"read_dt","SO2 (ppb)","flags","PMT voltage (V)","lamp voltage (V)","lamp intensity (Hz)","internal temp (C)","react chamber temp (C)","sample flow (l/min)","pres (mmHg)","SO2 bkg (ppb)","SO2 coefficient"
2018-09-19 00:00:00,-2.170E-01,4C000000*,-703.7,964.192,89,20.2,44.7,0.407,740.8,2.2,1.050*
2018-09-19 00:01:00,-2.037E-01,4C000000*,-703.0,962.979,89,20.2,44.8,0.407,740.5,2.2,1.050*
2018-09-19 00:02:00,-2.120E-01,4C000000*,-703.4,965.405,90,20.2,44.9,0.407,740.8,2.2,1.050*
2018-09-19 00:03:00,-1.921E-01,4C000000*,-703.0,964.597,90,20.2,45.0,0.407,740.5,2.2,1.050*
2018-09-19 00:04:00,-2.891E-01,4C000000*,-703.0,965.405,92,20.2,45.1,0.407,740.5,2.2,1.050*
2018-09-19 00:05:00,-2.455E-01,4C000000*,-703.4,962.979,89,20.2,44.7,0.407,740.5,2.2,1.050*
2018-09-19 00:06:00,-2.999E-01,4C000000*,-703.0,965.001,90,20.2,44.8,0.407,740.5,2.2,1.050*
2018-09-19 00:07:00,-2.397E-01,4C000000*,-703.0,965.001,88,20.2,44.9,0.407,740.2,2.2,1.050*
2018-09-19 00:08:00,-2.637E-01,4C000000*,-703.4,964.192,90,20.3,44.9,0.407,740.5,2.2,1.050*
2018-09-19 00:09:00,-3.086E-01,4C000000*,-703.0,965.001,89,20.3,45.1,0.407,740.5,2.2,1.050*
2018-09-19 00:10:00,-2.556E-01,4C000000*,-703.0,963.384,90,20.2,44.8,0.407,740.5,2.2,1.050*
"read_dt","SO2 (ppb)","flags","PMT voltage (V)","lamp voltage (V)","lamp intensity (Hz)","internal temp (C)","react chamber temp (C)","sample flow (l/min)","pres (mmHg)","SO2 bkg (ppb)","SO2 coefficient"
2018-09-19 07:46:00,-1.805E-01,4C000045*,-703.7,935.085,86,10.5,12.4,0.403,740.5,2.2,1.050*
2018-09-19 07:47:00,7.865E-01,4C000005*,-703.7,954.085,90,10.7,13.3,0.403,740.2,2.2,1.050*
2018-09-19 07:48:00,6.394E-01,4C000005*,-703.7,956.915,89,10.9,14.2,0.403,740.5,2.2,1.050*
2018-09-19 07:49:00,6.492E-01,4C000005*,-703.7,958.937,90,11.1,15.1,0.403,740.5,2.2,1.050*
2018-09-19 07:50:00,6.760E-01,4C000005*,-703.7,960.150,90,11.2,16.0,0.403,740.2,2.2,1.050*
2018-09-19 07:51:00,6.728E-01,4C000005*,-703.7,961.362,90,11.4,16.9,0.404,740.2,2.2,1.050*
2018-09-19 07:52:00,7.038E-01,4C000005*,-703.7,960.554,90,11.5,17.7,0.404,740.2,2.2,1.050*
2018-09-19 07:53:00,6.408E-01,4C000005*,-703.7,964.192,90,11.6,18.5,0.404,740.2,2.2,1.050*
2018-09-19 07:54:00,6.153E-01,4C000005*,-703.7,961.767,89,11.8,19.4,0.404,740.2,2.2,1.050*
2018-09-19 07:55:00,6.443E-01,4C000005*,-704.1,962.979,91,12.0,20.1,0.403,739.6,2.2,1.050*
2018-09-19 07:56:00,5.878E-01,4C000005*,-703.7,963.384,90,12.0,20.9,0.404,739.9,2.2,1.050*
2018-09-19 07:57:00,4.343E-01,4C000005*,-703.4,964.192,89,12.2,21.6,0.404,739.6,2.2,1.050*
2018-09-19 07:58:00,4.503E-01,4C000005*,-704.1,965.405,90,12.3,22.3,0.404,739.6,2.2,1.050*
2018-09-19 07:59:00,5.013E-01,4C000005*,-703.4,965.405,89,12.5,23.0,0.404,739.6,2.2,1.050*
2018-09-19 08:00:00,5.001E-01,4C000005*,-703.7,965.809,91,12.6,23.6,0.403,739.6,2.2,1.050*
2018-09-19 08:01:00,4.065E-01,4C000005*,-703.7,966.214,89,12.7,24.3,0.404,739.9,2.2,1.050*
2018-09-19 08:02:00,6.022E-01,4C000005*,-703.7,965.809,90,12.8,24.9,0.404,739.6,2.2,1.050*
2018-09-19 08:03:00,5.179E-01,4C000005*,-703.4,966.214,91,12.9,25.5,0.404,739.6,2.2,1.050*
2018-09-19 08:04:00,3.561E-01,4C000005*,-703.7,967.022,89,13.0,26.0,0.404,739.6,2.2,1.050*
2018-09-19 08:05:00,4.799E-01,4C000005*,-703.7,967.022,91,13.2,26.6,0.404,739.6,2.2,1.050*
2018-09-19 08:06:00,4.677E-01,4C000005*,-703.4,966.214,90,13.4,27.2,0.404,739.6,2.2,1.050*
2018-09-19 08:07:00,4.034E-01,4C000005*,-703.4,966.214,90,13.5,27.7,0.404,739.6,2.2,1.050*
2018-09-19 08:08:00,4.973E-01,4C000005*,-703.4,966.618,89,13.7,28.2,0.404,739.6,2.2,1.050*
2018-09-19 08:09:00,2.964E-01,4C000005*,-704.1,967.022,90,13.8,28.7,0.404,739.6,2.2,1.050*
2018-09-19 08:10:00,4.067E-01,4C000005*,-703.4,966.214,89,14.1,29.3,0.403,739.6,2.2,1.050*
2018-09-19 08:11:00,4.555E-01,4C000005*,-703.7,967.022,89,14.2,29.7,0.404,739.6,2.2,1.050*
2018-09-19 08:12:00,3.932E-01,4C000005*,-703.4,967.427,89,14.3,30.1,0.404,739.6,2.2,1.050*
2018-09-19 08:13:00,3.500E-01,4C000005*,-703.7,965.809,89,14.4,30.6,0.404,739.6,2.2,1.050*
2018-09-19 08:14:00,3.483E-01,4C000005*,-703.7,966.618,89,14.5,31.0,0.404,739.9,2.2,1.050*
2018-09-19 08:15:00,1.943E-01,4C000005*,-703.4,966.214,90,14.6,31.5,0.404,739.6,2.2,1.050*
2018-09-19 08:16:00,2.370E-01,4C000005*,-703.4,966.618,90,14.7,31.9,0.404,739.6,2.2,1.050*
2018-09-19 08:17:00,2.531E-01,4C000005*,-703.4,965.809,90,14.9,32.3,0.404,739.6,2.2,1.050*
2018-09-19 08:18:00,2.814E-01,4C000005*,-703.4,967.022,90,15.0,32.6,0.405,739.6,2.2,1.050*
2018-09-19 08:19:00,2.303E-01,4C000005*,-703.4,966.618,88,15.1,33.0,0.405,739.9,2.2,1.050*
2018-09-19 08:20:00,1.135E-01,4C000005*,-703.4,965.405,90,15.2,33.4,0.405,739.6,2.2,1.050*
2018-09-19 08:21:00,2.691E-01,4C000005*,-703.4,965.809,91,15.2,33.8,0.405,739.6,2.2,1.050*
2018-09-19 08:22:00,1.615E-01,4C000005*,-703.7,967.427,89,15.4,34.0,0.405,739.6,2.2,1.050*
2018-09-19 08:23:00,1.897E-01,4C000005*,-703.7,965.405,90,15.4,34.4,0.404,739.6,2.2,1.050*
2018-09-19 08:24:00,1.077E-01,4C000005*,-703.7,965.809,91,15.5,34.7,0.404,739.6,2.2,1.050*
2018-09-19 08:25:00,2.100E-01,4C000005*,-703.4,967.831,88,15.5,35.0,0.405,739.6,2.2,1.050*
2018-09-19 08:26:00,1.890E-01,4C000005*,-703.7,967.427,87,15.6,35.3,0.404,739.9,2.2,1.050*
2018-09-19 08:27:00,1.508E-01,4C000005*,-703.7,967.022,90,15.7,35.7,0.405,739.6,2.2,1.050*
2018-09-19 08:28:00,1.131E-01,4C000005*,-703.7,968.639,89,15.8,36.0,0.405,739.6,2.2,1.050*
2018-09-19 08:29:00,1.847E-01,4C000005*,-703.0,968.639,90,15.9,36.2,0.405,739.6,2.2,1.050*
2018-09-19 08:30:00,2.075E-01,4C000005*,-703.7,967.427,89,16.0,36.5,0.404,739.9,2.2,1.050*
2018-09-19 08:31:00,6.243E-03,4C000005*,-703.4,967.831,89,16.1,36.8,0.405,739.6,2.2,1.050*
2018-09-19 08:32:00,1.779E-01,4C000005*,-703.4,968.639,89,16.1,37.1,0.405,739.6,2.2,1.050*
2018-09-19 08:33:00,8.714E-03,4C000005*,-703.4,968.639,90,16.2,37.3,0.405,739.6,2.2,1.050*
2018-09-19 08:34:00,1.571E-01,4C000005*,-703.7,967.831,89,16.3,37.5,0.405,739.9,2.2,1.050*
2018-09-19 08:35:00,4.572E-02,4C000005*,-703.0,967.427,90,16.3,37.8,0.405,739.6,2.2,1.050*
2018-09-19 08:36:00,1.486E-01,4C000005*,-703.4,968.639,90,16.4,38.0,0.405,739.9,2.2,1.050*
2018-09-19 08:37:00,1.136E-01,4C000005*,-703.7,968.235,89,16.5,38.3,0.405,739.6,2.2,1.050*
2018-09-19 08:38:00,4.313E-02,4C000005*,-703.4,967.831,88,16.6,38.5,0.405,739.9,2.2,1.050*
2018-09-19 08:39:00,1.096E-02,4C000005*,-703.4,968.235,90,16.5,38.7,0.405,739.9,2.2,1.050*
2018-09-19 08:40:00,-5.129E-02,4C000005*,-703.4,967.022,89,16.6,38.9,0.405,739.6,2.2,1.050*
2018-09-19 08:41:00,2.038E-02,4C000005*,-703.4,967.831,89,16.6,39.1,0.405,739.9,2.2,1.050*
2018-09-19 08:42:00,5.702E-03,4C000005*,-703.4,969.448,89,16.7,39.3,0.405,739.6,2.2,1.050*
2018-09-19 08:43:00,-2.078E-02,4C000005*,-703.7,967.022,90,16.8,39.4,0.405,739.6,2.2,1.050*
2018-09-19 08:44:00,-3.137E-02,4C000005*,-703.0,968.235,90,16.9,39.7,0.405,739.9,2.2,1.050*
2018-09-19 08:45:00,-5.173E-02,4C000005*,-703.4,968.235,91,16.9,39.8,0.405,739.9,2.2,1.050*
2018-09-19 08:46:00,-9.506E-02,4C000005*,-703.4,967.831,90,17.0,40.0,0.405,739.6,2.2,1.050*
2018-09-19 08:47:00,-4.061E-02,4C000005*,-703.0,966.214,90,17.0,40.2,0.405,739.9,2.2,1.050*
2018-09-19 08:48:00,-1.372E-01,4C000005*,-703.4,967.022,89,17.1,40.4,0.405,739.6,2.2,1.050*
2018-09-19 08:49:00,-2.472E-02,4C000005*,-703.4,966.214,89,17.2,40.6,0.406,739.9,2.2,1.050*
2018-09-19 08:50:00,-1.115E-02,4C000005*,-703.4,967.022,89,17.1,40.7,0.405,739.9,2.2,1.050*
2018-09-19 08:51:00,-1.199E-01,4C000005*,-703.4,966.618,91,17.2,40.9,0.405,739.6,2.2,1.050*
2018-09-19 08:52:00,-4.943E-02,4C000005*,-703.7,967.022,90,17.2,41.0,0.405,739.6,2.2,1.050*
2018-09-19 08:53:00,5.329E-03,4C000005*,-703.4,967.831,90,17.3,41.2,0.405,739.9,2.2,1.050*
2018-09-19 08:54:00,-1.613E-01,4C000005*,-703.4,967.022,91,17.4,41.4,0.406,739.9,2.2,1.050*
2018-09-19 08:55:00,-1.075E-01,4C000005*,-703.4,967.022,88,17.5,41.5,0.405,739.6,2.2,1.050*
2018-09-19 08:56:00,-9.869E-02,4C000005*,-703.4,967.427,89,17.4,41.6,0.405,739.6,2.2,1.050*
2018-09-19 08:57:00,-1.133E-01,4C000005*,-703.7,967.427,90,17.5,41.7,0.405,739.9,2.2,1.050*
2018-09-19 08:58:00,-1.061E-01,4C000005*,-703.4,967.427,91,17.5,41.9,0.405,739.6,2.2,1.050*
2018-09-19 08:59:00,-1.738E-01,4C000005*,-703.0,967.427,89,17.6,42.0,0.405,739.9,2.2,1.050*
2018-09-19 09:00:00,-6.056E-02,4C000005*,-703.4,966.618,90,17.7,42.1,0.406,739.6,2.2,1.050*
2018-09-19 09:01:00,-1.753E-01,4C000005*,-703.4,965.405,89,17.7,42.3,0.406,739.6,2.2,1.050*
2018-09-19 09:02:00,-8.570E-02,4C000005*,-703.0,966.618,89,17.7,42.3,0.406,739.6,2.2,1.050*
2018-09-19 09:03:00,-1.751E-01,4C000005*,-703.4,965.405,89,17.7,42.5,0.406,739.9,2.2,1.050*
2018-09-19 09:04:00,-8.669E-02,4C000005*,-703.0,966.618,90,17.8,42.6,0.406,739.9,2.2,1.050*
2018-09-19 09:05:00,-1.450E-01,4C000005*,-703.0,966.618,91,17.7,42.7,0.405,739.6,2.2,1.050*
2018-09-19 09:06:00,-2.145E-01,4C000005*,-703.4,967.022,90,17.9,42.9,0.406,739.6,2.2,1.050*
2018-09-19 09:07:00,-1.318E-01,4C000005*,-703.4,965.809,90,17.9,42.9,0.406,739.9,2.2,1.050*
2018-09-19 09:08:00,-1.235E-01,4C000000*,-703.4,965.001,90,17.9,43.0,0.406,739.9,2.2,1.050*
2018-09-19 09:09:00,-1.617E-01,4C000000*,-703.7,966.214,90,17.9,43.1,0.405,739.9,2.2,1.050*
2018-09-19 09:10:00,-9.750E-02,4C000000*,-703.4,964.597,89,17.8,43.2,0.405,739.6,2.2,1.050*
2018-09-19 09:11:00,-1.019E-01,4C000000*,-703.4,965.405,90,18.0,43.3,0.406,739.9,2.2,1.050*
2018-09-19 09:12:00,-1.336E-01,4C000000*,-703.0,965.809,90,17.9,43.4,0.406,739.9,2.2,1.050*
2018-09-19 09:13:00,-9.139E-02,4C000000*,-703.4,964.597,90,18.0,43.5,0.406,739.6,2.2,1.050*
2018-09-19 09:14:00,-1.823E-01,4C000000*,-703.4,966.618,89,18.0,43.5,0.406,739.9,2.2,1.050*
2018-09-19 09:15:00,-2.428E-01,4C000000*,-703.4,966.618,90,18.0,43.7,0.406,739.6,2.2,1.050*
2018-09-19 09:16:00,-8.799E-02,4C000000*,-703.0,966.618,91,18.2,43.7,0.406,739.9,2.2,1.050*
2018-09-19 09:17:00,-1.318E-01,4C000000*,-703.0,966.214,90,18.2,43.8,0.406,739.9,2.2,1.050*
2018-09-19 09:18:00,-1.937E-01,4C000000*,-703.0,967.022,90,18.2,43.9,0.406,739.6,2.2,1.050*
2018-09-19 09:19:00,-1.130E-01,4C000000*,-703.4,966.618,90,18.1,44.0,0.406,739.9,2.2,1.050*
2018-09-19 09:20:00,-1.747E-01,4C000000*,-703.0,967.427,89,18.2,44.1,0.405,739.6,2.2,1.050*
2018-09-19 09:21:00,-1.771E-01,4C000000*,-702.6,967.427,90,18.2,44.1,0.406,739.9,2.2,1.050*
2018-09-19 09:22:00,-3.102E-01,4C000000*,-703.4,967.022,90,18.2,44.2,0.406,739.9,2.2,1.050*
2018-09-19 09:23:00,-1.663E-01,4C000000*,-703.4,966.618,89,18.2,44.3,0.406,739.9,2.2,1.050*
2018-09-19 09:24:00,-2.127E-01,4C000000*,-703.0,966.214,90,18.4,44.3,0.406,739.9,2.2,1.050*
2018-09-19 09:25:00,-2.382E-01,4C000000*,-703.4,966.618,89,18.3,44.4,0.406,739.9,2.2,1.050*
2018-09-19 09:26:00,-1.903E-01,4C000000*,-703.4,966.214,90,18.3,44.4,0.406,739.9,2.2,1.050*
2018-09-19 09:27:00,-8.676E-02,4C000000*,-703.4,965.809,90,18.4,44.6,0.406,739.9,2.2,1.050*
2018-09-19 09:28:00,-1.615E-01,4C000000*,-703.4,966.214,90,18.4,44.5,0.406,739.6,2.2,1.050*
2018-09-19 09:29:00,-2.131E-01,4C000000*,-703.4,966.618,91,18.4,44.6,0.406,739.6,2.2,1.050*
2018-09-19 09:30:00,-2.641E-01,4C000000*,-703.4,966.618,90,18.4,44.7,0.406,739.9,2.2,1.050*
2018-09-19 09:31:00,-1.811E-01,4C000000*,-703.4,965.809,89,18.4,44.7,0.406,739.9,2.2,1.050*
2018-09-19 09:32:00,-2.180E-01,4C000000*,-703.4,966.618,90,18.4,44.8,0.406,739.9,2.2,1.050*
2018-09-19 09:33:00,-1.754E-01,4C000000*,-703.4,967.427,89,18.5,44.8,0.406,739.9,2.2,1.050*
2018-09-19 09:34:00,-2.052E-01,4C000000*,-703.0,965.405,89,18.5,44.9,0.406,739.6,2.2,1.050*
2018-09-19 09:35:00,-1.603E-01,4C000000*,-703.0,969.044,90,18.5,45.0,0.406,739.9,2.2,1.050*
2018-09-19 09:36:00,-2.540E-01,4C000000*,-703.4,967.831,89,18.6,45.0,0.406,739.6,2.2,1.050*
2018-09-19 09:37:00,-2.609E-01,4C000000*,-703.4,966.214,90,18.5,45.0,0.406,739.9,2.2,1.050*
2018-09-19 09:38:00,-2.060E-01,4C000000*,-703.7,966.618,91,18.6,44.8,0.406,739.9,2.2,1.050*
2018-09-19 09:39:00,-2.780E-01,4C000000*,-703.7,967.022,90,18.5,44.8,0.406,739.9,2.2,1.050*
2018-09-19 09:40:00,-2.373E-01,4C000000*,-703.4,966.214,90,18.6,44.8,0.406,739.6,2.2,1.050*
2018-09-19 09:41:00,-2.333E-01,4C000000*,-702.6,967.022,90,18.6,44.8,0.406,739.9,2.2,1.050*
2018-09-19 09:42:00,-3.093E-01,4C000000*,-703.4,967.427,90,18.6,44.8,0.406,739.9,2.2,1.050*
2018-09-19 09:43:00,-2.809E-01,4C000000*,-703.4,966.214,91,18.6,44.9,0.406,739.6,2.2,1.050*
2018-09-19 09:44:00,-2.505E-01,4C000000*,-703.0,966.618,90,18.6,45.0,0.406,739.6,2.2,1.050*
2018-09-19 09:45:00,-2.166E-01,4C000000*,-703.0,967.427,90,18.6,45.0,0.406,739.9,2.2,1.050*
2018-09-19 09:46:00,-2.410E-01,4C000000*,-703.4,967.022,88,18.8,45.1,0.406,739.9,2.2,1.050*
2018-09-19 09:47:00,-1.774E-01,4C000000*,-703.4,967.022,90,18.7,44.7,0.406,739.9,2.2,1.050*
2018-09-19 09:48:00,-1.734E-01,4C000000*,-703.4,965.405,91,18.7,44.7,0.406,739.9,2.2,1.050*
2018-09-19 09:49:00,-3.485E-01,4C000000*,-703.0,965.001,90,18.6,44.7,0.406,739.9,2.2,1.050*
2018-09-19 09:50:00,-1.992E-01,4C000000*,-703.4,967.427,89,18.6,44.8,0.406,739.9,2.2,1.050*
2018-09-19 09:51:00,-2.411E-01,4C000000*,-703.7,966.618,91,18.8,44.8,0.406,739.9,2.2,1.050*
2018-09-19 09:52:00,-1.850E-01,4C000000*,-703.0,967.831,91,18.7,44.8,0.406,739.6,2.2,1.050*
2018-09-19 09:53:00,-1.829E-01,4C000000*,-703.4,966.214,89,18.7,44.9,0.406,739.6,2.2,1.050*
2018-09-19 09:54:00,-2.438E-01,4C000000*,-703.0,965.809,90,18.8,45.0,0.406,739.9,2.2,1.050*
2018-09-19 09:55:00,-2.339E-01,4C000000*,-703.0,966.214,90,18.7,45.1,0.406,739.9,2.2,1.050*
2018-09-19 09:56:00,-2.659E-01,4C000000*,-703.0,965.405,90,18.7,44.8,0.406,739.6,2.2,1.050*
2018-09-19 09:57:00,-3.263E-01,4C000000*,-703.4,966.618,89,18.7,44.7,0.406,739.9,2.2,1.050*
2018-09-19 09:58:00,-2.451E-01,4C000000*,-703.4,967.831,89,18.7,44.8,0.406,739.6,2.2,1.050*
2018-09-19 09:59:00,-1.925E-01,4C000000*,-703.0,966.618,88,18.7,44.8,0.406,739.9,2.2,1.050*
2018-09-19 10:00:00,-2.365E-01,4C000000*,-703.4,966.214,91,18.8,44.8,0.406,739.9,2.2,1.050*
2018-09-19 10:01:00,-2.903E-01,4C000000*,-703.4,965.809,90,18.7,44.9,0.406,739.9,2.2,1.050*
2018-09-19 10:02:00,-3.001E-01,4C000000*,-703.4,966.618,90,18.7,45.0,0.406,739.9,2.2,1.050*
2018-09-19 10:03:00,-3.111E-01,4C000000*,-703.4,966.214,91,18.7,45.0,0.406,739.6,2.2,1.050*
2018-09-19 10:04:00,-3.134E-01,4C000000*,-703.4,965.405,88,18.8,44.9,0.406,739.6,2.2,1.050*
2018-09-19 10:05:00,-2.601E-01,4C000000*,-703.4,967.022,90,18.8,44.7,0.406,739.9,2.2,1.050*
2018-09-19 10:06:00,-2.209E-01,4C000000*,-703.4,965.809,90,18.8,44.8,0.406,739.9,2.2,1.050*
2018-09-19 10:07:00,-1.435E-01,4C000000*,-703.4,966.618,88,18.7,44.8,0.406,739.9,2.2,1.050*
2018-09-19 10:08:00,-2.854E-01,4C000000*,-703.4,966.618,90,18.7,44.8,0.406,739.6,2.2,1.050*
2018-09-19 10:09:00,-2.180E-01,4C000000*,-703.4,965.001,90,18.8,44.9,0.406,739.9,2.2,1.050*
2018-09-19 10:10:00,-2.702E-01,4C000000*,-703.4,967.427,90,18.9,44.9,0.406,739.9,2.2,1.050*
2018-09-19 10:11:00,-2.267E-01,4C000000*,-703.4,967.427,90,18.9,45.0,0.406,739.9,2.2,1.050*
2018-09-19 10:12:00,-1.958E-01,4C000000*,-703.0,967.427,90,18.9,45.1,0.406,739.9,2.2,1.050*
2018-09-19 10:13:00,-2.513E-01,4C000000*,-703.0,965.405,90,18.8,44.7,0.406,739.9,2.2,1.050*
2018-09-19 10:14:00,-2.310E-01,4C000000*,-703.7,965.809,89,18.8,44.6,0.406,739.9,2.2,1.050*
2018-09-19 10:15:00,-3.154E-01,4C000000*,-703.4,967.022,90,18.8,44.7,0.406,739.6,2.2,1.050*
2018-09-19 10:16:00,-2.301E-01,4C000000*,-703.0,966.618,89,18.8,44.7,0.406,739.9,2.2,1.050*
2018-09-19 10:17:00,-1.931E-01,4C000000*,-703.0,967.022,90,18.8,44.7,0.406,739.9,2.2,1.050*
2018-09-19 10:18:00,-2.275E-01,4C000000*,-703.0,965.809,90,18.8,44.8,0.406,739.6,2.2,1.050*
2018-09-19 10:19:00,-2.554E-01,4C000000*,-703.0,965.001,89,18.8,44.9,0.406,739.6,2.2,1.050*
2018-09-19 10:20:00,-2.680E-01,4C000000*,-703.4,965.809,90,18.9,44.9,0.406,739.9,2.2,1.050*
2018-09-19 10:21:00,-2.691E-01,4C000000*,-703.0,967.427,90,18.8,45.0,0.406,739.6,2.2,1.050*
2018-09-19 10:22:00,-2.240E-01,4C000000*,-703.0,965.809,89,18.9,45.0,0.406,739.6,2.2,1.050*
2018-09-19 10:23:00,-2.438E-01,4C000000*,-703.0,966.618,91,18.8,44.7,0.406,739.9,2.2,1.050*
2018-09-19 10:24:00,-1.913E-01,4C000000*,-703.0,966.214,90,18.9,44.7,0.406,739.9,2.2,1.050*
2018-09-19 10:25:00,-2.850E-01,4C000000*,-703.0,967.022,90,18.9,44.7,0.406,739.9,2.2,1.050*
2018-09-19 10:26:00,-2.157E-01,4C000000*,-703.0,965.809,90,18.9,44.8,0.406,739.9,2.2,1.050*
2018-09-19 10:27:00,-2.448E-01,4C000000*,-703.4,965.001,90,18.9,44.9,0.406,739.6,2.2,1.050*
2018-09-19 10:28:00,-2.539E-01,4C000000*,-703.0,964.192,90,18.8,44.9,0.406,739.9,2.2,1.050*
2018-09-19 10:29:00,-2.308E-01,4C000000*,-703.4,965.809,89,18.9,45.0,0.406,739.6,2.2,1.050*
2018-09-19 10:30:00,-2.346E-01,4C000000*,-703.4,967.427,89,18.8,45.0,0.406,739.9,2.2,1.050*
2018-09-19 10:31:00,-2.753E-01,4C000000*,-703.4,965.809,90,18.9,44.7,0.406,739.9,2.2,1.050*
2018-09-19 10:32:00,-2.657E-01,4C000000*,-703.0,967.831,91,18.9,44.7,0.406,739.6,2.2,1.050*
2018-09-19 10:33:00,-2.966E-01,4C000000*,-703.4,967.022,91,18.8,44.7,0.406,739.6,2.2,1.050*
2018-09-19 10:34:00,-2.556E-01,4C000000*,-703.0,965.405,90,18.9,44.8,0.406,739.6,2.2,1.050*
2018-09-19 10:35:00,-2.846E-01,4C000000*,-703.0,965.809,90,18.9,44.8,0.406,739.9,2.2,1.050*
2018-09-19 10:36:00,-3.358E-01,4C000000*,-703.4,967.022,90,18.9,44.9,0.406,739.9,2.2,1.050*
2018-09-19 10:37:00,-3.416E-01,4C000000*,-703.0,966.618,90,18.9,45.0,0.406,739.6,2.2,1.050*
2018-09-19 10:38:00,-1.961E-01,4C000000*,-703.0,967.022,88,19.0,45.0,0.406,739.9,2.2,1.050*
2018-09-19 10:39:00,-2.311E-01,4C000000*,-703.0,967.427,91,19.0,44.9,0.406,739.6,2.2,1.050*
2018-09-19 10:40:00,-2.703E-01,4C000000*,-703.4,965.405,90,18.9,44.8,0.405,739.6,2.2,1.050*
2018-09-19 10:41:00,-2.679E-01,4C000000*,-703.4,965.405,91,18.9,44.8,0.406,739.6,2.2,1.050*
2018-09-19 10:42:00,-2.534E-01,4C000000*,-703.4,965.809,89,18.9,44.9,0.406,739.9,2.2,1.050*
2018-09-19 10:43:00,-3.071E-01,4C000000*,-703.4,965.809,89,19.0,44.9,0.406,739.6,2.2,1.050*
2018-09-19 10:44:00,-2.644E-01,4C000000*,-703.4,966.214,90,19.0,45.0,0.406,739.6,2.2,1.050*
2018-09-19 10:45:00,-2.975E-01,4C000000*,-703.4,966.214,89,19.0,45.1,0.406,739.6,2.2,1.050*
2018-09-19 10:46:00,-3.700E-01,4C000000*,-703.4,965.001,90,18.9,44.8,0.406,739.6,2.2,1.050*
2018-09-19 10:47:00,-2.798E-01,4C000000*,-702.6,965.405,90,18.9,44.8,0.406,739.6,2.2,1.050*
2018-09-19 10:48:00,-2.703E-01,4C000000*,-703.4,965.001,90,18.9,44.8,0.406,739.6,2.2,1.050*
2018-09-19 10:49:00,-3.552E-01,4C000000*,-703.0,964.597,90,18.9,44.8,0.406,739.6,2.2,1.050*
2018-09-19 10:50:00,-2.502E-01,4C000000*,-703.4,966.618,89,19.0,44.9,0.406,739.6,2.2,1.050*
2018-09-19 10:51:00,-2.596E-01,4C000000*,-703.0,965.405,90,18.9,45.0,0.406,739.6,2.2,1.050*
2018-09-19 10:52:00,-2.629E-01,4C000000*,-703.0,965.001,91,18.9,45.1,0.406,739.6,2.2,1.050*
2018-09-19 10:53:00,-2.610E-01,4C000000*,-702.6,965.809,89,19.0,44.8,0.406,739.6,2.2,1.050*
2018-09-19 10:54:00,-2.981E-01,4C000000*,-703.4,965.001,89,18.9,44.6,0.406,739.6,2.2,1.050*
2018-09-19 10:55:00,-2.907E-01,4C000000*,-703.4,967.831,89,19.0,44.7,0.406,739.6,2.2,1.050*
2018-09-19 10:56:00,-3.307E-01,4C000000*,-703.4,966.214,90,19.0,44.7,0.406,739.6,2.2,1.050*
2018-09-19 10:57:00,-2.803E-01,4C000000*,-703.7,966.618,88,19.0,44.8,0.406,739.6,2.2,1.050*
2018-09-19 10:58:00,-2.840E-01,4C000000*,-702.6,966.214,90,19.1,44.8,0.406,739.6,2.2,1.050*
2018-09-19 10:59:00,-2.229E-01,4C000000*,-703.4,965.405,90,19.0,44.9,0.407,739.6,2.2,1.050*
2018-09-19 11:00:00,-3.131E-01,4C000000*,-703.0,965.001,89,19.0,45.0,0.406,739.9,2.2,1.050*
2018-09-19 11:01:00,-2.988E-01,4C000000*,-703.4,966.618,89,19.0,45.0,0.406,739.6,2.2,1.050*
2018-09-19 11:02:00,-3.188E-01,4C000000*,-703.0,967.022,89,19.0,44.7,0.406,739.6,2.2,1.050*
2018-09-19 11:03:00,-2.061E-01,4C000000*,-703.7,966.618,90,19.0,44.7,0.406,739.9,2.2,1.050*
2018-09-19 11:04:00,-2.221E-01,4C000000*,-703.4,966.618,89,19.0,44.7,0.406,739.6,2.2,1.050*
2018-09-19 11:05:00,-2.738E-01,4C000000*,-703.0,965.001,90,19.0,44.8,0.406,739.6,2.2,1.050*
2018-09-19 11:06:00,-2.560E-01,4C000000*,-703.4,967.022,91,19.1,44.8,0.406,739.6,2.2,1.050*
2018-09-19 11:07:00,-2.122E-01,4C000000*,-703.4,965.809,90,19.0,44.9,0.406,739.6,2.2,1.050*
2018-09-19 11:08:00,-3.405E-01,4C000000*,-703.0,965.001,90,19.0,45.0,0.406,739.6,2.2,1.050*
2018-09-19 11:09:00,-2.791E-01,4C000000*,-703.4,965.405,90,19.1,45.1,0.406,739.6,2.2,1.050*
2018-09-19 11:10:00,-2.431E-01,4C000000*,-702.6,966.618,90,19.0,44.7,0.406,739.6,2.2,1.050*
2018-09-19 11:11:00,-2.206E-01,4C000000*,-703.4,966.214,89,19.0,44.7,0.406,739.6,2.2,1.050*
2018-09-19 11:12:00,-2.733E-01,4C000000*,-703.4,966.214,90,19.0,44.7,0.406,739.9,2.2,1.050*
2018-09-19 11:13:00,-1.931E-01,4C000000*,-703.7,965.405,89,19.0,44.8,0.406,739.6,2.2,1.050*
2018-09-19 11:14:00,-2.264E-01,4C000000*,-703.7,966.214,90,19.0,44.9,0.406,739.9,2.2,1.050*
2018-09-19 11:15:00,-1.697E-01,4C000000*,-703.4,966.214,91,19.0,44.9,0.407,739.6,2.2,1.050*
2018-09-19 11:16:00,-3.274E-01,4C000000*,-702.6,967.022,88,19.0,45.0,0.406,739.6,2.2,1.050*
2018-09-19 11:17:00,-1.797E-01,4C000000*,-703.4,965.405,90,19.1,45.0,0.406,739.9,2.2,1.050*
2018-09-19 11:18:00,-2.494E-01,4C000000*,-703.0,967.022,89,19.0,44.7,0.406,739.6,2.2,1.050*
2018-09-19 11:19:00,-2.142E-01,4C000000*,-703.7,965.405,91,19.0,44.7,0.406,739.6,2.2,1.050*
2018-09-19 11:20:00,-3.068E-01,4C000000*,-702.6,965.809,90,19.0,44.8,0.406,739.9,2.2,1.050*
2018-09-19 11:21:00,-2.550E-01,4C000000*,-703.4,966.214,90,19.1,44.8,0.406,739.9,2.2,1.050*
2018-09-19 11:22:00,-2.849E-01,4C000000*,-703.4,965.001,89,19.1,44.9,0.406,739.6,2.2,1.050*
2018-09-19 11:23:00,-2.910E-01,4C000000*,-703.4,966.214,90,19.0,44.9,0.407,739.6,2.2,1.050*
2018-09-19 11:24:00,-1.951E-01,4C000000*,-703.0,967.427,89,19.1,45.0,0.406,739.6,2.2,1.050*
2018-09-19 11:25:00,-3.048E-01,4C000000*,-703.0,967.831,89,19.1,44.9,0.406,739.6,2.2,1.050*
2018-09-19 11:26:00,-3.072E-01,4C000000*,-703.0,965.809,89,19.0,44.8,0.406,739.9,2.2,1.050*
2018-09-19 11:27:00,-3.245E-01,4C000000*,-703.4,966.618,91,19.0,44.8,0.406,739.6,2.2,1.050*
2018-09-19 11:28:00,-2.958E-01,4C000000*,-703.0,966.618,89,19.1,44.9,0.406,739.6,2.2,1.050*
2018-09-19 11:29:00,-2.829E-01,4C000000*,-703.4,965.405,89,19.1,44.9,0.406,739.6,2.2,1.050*
2018-09-19 11:30:00,-2.197E-01,4C000000*,-703.4,966.618,91,19.1,45.0,0.406,739.9,2.2,1.050*
2018-09-19 11:31:00,-3.158E-01,4C000000*,-703.4,966.214,90,19.1,45.1,0.406,739.6,2.2,1.050*
2018-09-19 11:32:00,-2.573E-01,4C000000*,-703.4,967.022,91,19.2,44.7,0.406,739.6,2.2,1.050*
2018-09-19 11:33:00,-2.135E-01,4C000000*,-703.4,966.618,91,19.1,44.8,0.406,739.9,2.2,1.050*
2018-09-19 11:34:00,-2.169E-01,4C000000*,-703.4,967.427,88,19.1,44.8,0.406,739.9,2.2,1.050*
2018-09-19 11:35:00,-3.387E-01,4C000000*,-703.0,967.022,90,19.1,44.8,0.406,739.9,2.2,1.050*
2018-09-19 11:36:00,-2.698E-01,4C000000*,-703.4,966.618,90,19.1,44.9,0.406,739.9,2.2,1.050*
2018-09-19 11:37:00,-2.491E-01,4C000000*,-703.4,967.022,89,19.1,45.0,0.406,739.9,2.2,1.050*
2018-09-19 11:38:00,-2.703E-01,4C000000*,-703.0,965.405,91,19.1,45.0,0.406,739.6,2.2,1.050*
2018-09-19 11:39:00,-2.887E-01,4C000000*,-703.4,965.001,89,19.1,44.8,0.406,739.9,2.2,1.050*
2018-09-19 11:40:00,-3.065E-01,4C000000*,-703.4,964.597,90,19.1,44.8,0.406,739.9,2.2,1.050*
2018-09-19 11:41:00,-3.066E-01,4C000000*,-703.4,965.001,89,19.1,44.8,0.406,739.9,2.2,1.050*
2018-09-19 11:42:00,-2.984E-01,4C000000*,-703.4,966.214,89,19.1,44.9,0.406,739.9,2.2,1.050*
2018-09-19 11:43:00,-2.222E-01,4C000000*,-703.4,965.809,90,19.1,45.0,0.406,739.6,2.2,1.050*
2018-09-19 11:44:00,-2.289E-01,4C000000*,-703.4,967.022,91,19.1,45.1,0.406,739.9,2.2,1.050*
2018-09-19 11:45:00,-2.212E-01,4C000000*,-703.4,966.214,89,19.0,44.8,0.406,739.6,2.2,1.050*
2018-09-19 11:46:00,-2.879E-01,4C000000*,-703.7,965.809,89,19.0,44.7,0.406,739.9,2.2,1.050*
2018-09-19 11:47:00,-2.375E-01,4C000000*,-703.4,966.618,90,19.1,44.8,0.406,739.6,2.2,1.050*
2018-09-19 11:48:00,-1.635E-01,4C000000*,-703.4,966.618,90,19.1,44.9,0.406,739.6,2.2,1.050*